ECMWFNIL_500_spd_132.txt.gz
Wind_Speed
14 14 13 13 12 11 11 10 10 10 10 10 10 10 9 9 8 8 8 8 8 8 8 7 6 6 5 4 3 3 2 2 2 1 1 2 3 3 3 3 3 3
15 15 15 14 14 13 13 12 11 11 10 10 10 10 10 10 9 9 9 8 8 8 8 7 7 6 5 5 4 3 3 2 2 2 2 3 3 3 3 3 3 3
17 16 16 16 15 14 14 13 12 12 11 11 12 11 11 11 10 10 10 10 9 9 9 8 8 7 6 6 5 4 3 3 3 3 2 2 3 3 3 3 3 4
19 19 18 17 16 15 14 14 14 13 13 13 12 12 11 11 12 11 11 11 10 10 9 9 9 8 8 7 6 5 4 4 3 3 2 2 2 2 2 3 4 4
20 20 19 18 17 16 16 16 16 15 15 14 13 13 13 13 12 12 12 12 12 11 11 10 9 9 8 7 7 6 5 5 4 4 3 3 2 3 3 3 4 4
20 20 20 20 19 18 18 18 17 16 16 15 14 14 14 14 13 13 13 13 13 12 12 11 10 9 9 8 7 7 6 5 5 5 4 4 3 4 4 4 4 4
21 21 21 21 21 20 21 20 19 18 17 16 16 16 16 16 15 15 14 14 13 13 12 11 10 9 9 8 8 7 6 6 6 6 5 5 5 5 5 5 5 5
23 22 22 22 22 22 22 22 21 20 19 18 18 18 17 17 17 16 16 15 14 14 13 11 11 10 10 10 9 9 8 8 7 7 7 7 7 6 6 6 6 6
24 24 23 22 22 23 23 23 22 22 22 21 21 20 19 19 19 18 18 17 16 15 14 13 13 12 12 12 12 12 11 10 10 10 9 9 9 8 8 7 8 8
25 24 24 23 23 24 24 24 24 24 23 23 23 22 21 21 20 20 19 18 18 17 16 16 16 15 15 15 15 14 14 13 12 12 12 11 11 10 9 8 9 9
26 26 25 24 25 25 25 25 25 25 25 25 24 24 23 23 22 21 21 20 19 19 18 18 18 18 17 17 16 16 15 15 14 14 13 13 13 12 11 10 10 10
27 27 27 26 26 26 25 25 25 25 25 25 25 24 24 23 23 23 22 21 21 20 20 20 19 19 19 18 18 18 18 17 16 15 15 14 14 13 13 12 12 11
27 28 28 28 27 26 26 25 24 24 24 24 24 24 24 23 23 23 22 22 21 21 21 21 21 21 21 21 20 20 20 19 18 18 17 16 15 15 15 14 13 12
27 29 30 30 30 29 28 27 26 25 25 24 24 24 24 23 23 23 22 22 23 23 23 22 22 23 23 22 22 22 22 21 20 20 19 18 18 17 16 16 15 14
28 30 31 32 32 32 31 29 28 27 27 26 26 25 25 24 24 23 23 23 24 25 24 24 24 24 25 24 24 23 23 22 22 21 20 21 20 19 18 17 17 16
28 30 31 33 33 33 33 31 30 30 30 29 29 28 28 27 26 25 25 26 27 27 26 25 25 25 25 24 24 23 23 23 23 22 22 22 22 21 20 19 18 18
29 30 31 32 33 34 34 33 33 33 33 32 31 31 30 29 28 27 27 28 29 28 27 26 26 26 25 23 22 22 23 23 24 24 23 23 24 23 22 21 19 17
31 31 31 31 33 34 35 35 35 35 35 34 33 31 31 31 30 29 29 29 30 30 28 27 26 26 26 24 22 23 25 25 25 24 23 24 25 25 24 23 21 19
34 32 32 32 34 35 35 35 36 36 36 35 33 31 30 30 30 31 31 30 31 30 29 28 27 27 27 27 26 27 29 28 26 24 24 25 25 26 27 26 25 24
38 36 35 37 37 36 35 35 35 35 35 34 32 31 29 29 30 30 29 29 29 29 28 27 27 28 28 29 29 29 29 28 26 25 25 27 27 27 28 29 29 29
41 39 38 40 40 38 37 37 35 33 33 33 33 32 30 30 30 28 26 28 30 29 28 27 27 28 28 28 29 29 28 27 27 27 28 29 28 28 28 30 31 32
42 41 40 40 41 40 39 39 37 35 34 34 34 34 33 31 31 29 29 31 32 31 29 28 30 30 29 28 29 29 29 28 28 28 29 30 30 29 28 30 31 32
43 42 40 38 40 41 41 40 40 39 38 37 36 36 34 33 33 32 32 33 34 34 32 32 33 33 32 32 32 32 31 31 31 30 30 31 32 31 29 30 31 32
40 41 39 38 38 40 42 42 42 42 42 39 37 36 35 35 35 35 35 36 36 37 36 36 36 35 35 35 34 34 34 34 33 32 32 32 32 31 30 31 31 32
37 38 39 39 38 40 42 42 41 44 44 40 37 36 36 37 37 38 38 38 37 37 36 36 36 37 37 36 35 34 35 35 34 33 33 33 32 31 31 31 31 31
34 34 35 37 37 39 43 41 37 39 43 41 38 38 38 38 39 39 39 38 37 36 35 34 34 34 35 36 35 34 35 35 33 32 32 31 31 31 31 30 29 29

ECMWFNIL_500_spd_135.txt.gz
Wind_Speed
15 15 15 15 14 13 13 12 11 11 11 10 10 11 11 11 10 10 10 9 8 8 8 7 7 6 5 5 4 3 3 2 2 2 1 2 2 2 2 3 3 3
16 16 15 15 15 14 14 13 12 12 12 12 12 12 12 11 11 10 10 9 9 8 8 7 7 6 6 5 4 3 3 2 2 2 2 2 3 3 4 4 4 4
17 16 16 16 16 15 15 14 14 14 14 13 13 13 12 12 11 11 11 10 10 9 9 8 7 7 6 5 4 3 3 3 2 1 1 2 3 4 4 5 5 5
19 18 18 17 16 16 15 15 15 15 15 15 15 14 13 13 12 12 11 11 10 10 10 9 8 8 7 6 5 4 3 3 2 2 2 2 2 3 4 5 6 6
20 20 19 18 17 16 16 16 16 17 17 16 16 15 15 14 13 13 12 12 11 11 11 10 9 9 8 7 6 5 4 4 4 3 3 3 3 3 3 4 5 6
21 21 20 19 18 18 17 17 17 17 18 17 17 16 16 15 14 14 13 13 12 12 12 11 11 10 9 9 8 7 6 6 6 6 5 5 5 4 4 4 4 4
22 22 22 21 20 19 19 19 18 18 18 18 17 17 17 16 16 15 14 14 14 14 13 13 12 12 11 11 10 9 8 8 9 9 8 8 7 6 5 5 4 4
23 23 23 22 22 21 21 21 20 20 19 18 18 18 18 17 17 16 15 15 15 15 14 14 14 14 13 13 12 12 11 11 11 10 10 9 9 8 8 7 6 5
24 23 23 22 22 22 23 23 22 21 20 19 19 18 18 18 17 17 17 17 16 16 16 16 16 16 15 15 14 14 13 12 12 11 11 10 10 10 10 10 9 8
25 25 24 23 23 23 24 24 24 23 22 21 21 20 19 19 18 18 18 18 18 18 18 17 17 17 17 17 16 15 14 14 13 13 13 13 12 12 12 12 12 11
26 26 25 24 24 24 24 25 24 23 23 23 22 22 21 20 19 19 19 19 19 19 19 19 19 19 19 18 17 17 16 16 15 15 15 15 15 14 14 14 14 13
28 28 27 26 26 26 26 25 25 24 24 24 23 23 23 22 21 20 20 20 20 20 20 20 20 20 20 20 20 19 19 18 18 17 17 17 17 16 16 16 16 15
29 29 29 29 28 28 27 27 26 25 25 25 25 25 25 24 23 23 22 22 22 22 22 22 22 21 22 22 22 22 21 20 19 19 19 18 18 18 17 17 17 17
30 31 31 31 31 30 30 29 28 28 27 27 27 27 26 26 26 25 25 24 24 24 24 24 23 23 24 24 24 24 23 22 21 21 20 20 20 19 19 19 19 19
29 30 30 31 31 32 32 32 31 30 29 29 28 27 27 27 27 27 27 26 26 27 26 26 25 25 25 25 25 26 25 24 23 23 22 22 21 21 21 21 21 21
29 29 29 29 30 32 33 34 33 32 31 30 29 29 29 28 28 28 28 28 28 28 28 27 27 27 27 27 27 27 26 26 25 25 25 24 24 22 22 22 22 23
31 30 29 29 30 31 33 34 35 34 32 31 31 31 31 31 30 29 29 29 29 29 29 28 28 29 28 28 28 27 27 27 27 27 27 26 26 24 23 24 24 25
34 32 31 31 31 31 31 32 34 34 33 33 33 33 34 34 33 31 30 30 29 29 29 29 30 30 29 28 28 28 28 28 28 28 27 27 27 26 25 25 25 26
35 34 33 33 33 33 32 31 32 33 34 35 35 35 36 36 35 33 32 32 32 32 32 32 32 31 30 30 30 30 30 30 29 29 29 28 27 27 27 27 27 27
39 38 37 36 36 35 34 34 33 32 32 34 35 36 36 37 37 36 35 35 34 34 34 34 33 33 32 32 31 32 31 31 31 31 31 30 29 28 27 27 28 28
43 42 40 39 38 37 35 36 37 35 33 32 33 34 35 36 37 37 36 35 34 34 34 34 34 34 34 33 33 32 32 30 31 32 32 32 31 29 28 29 29 30
44 42 40 40 40 38 37 38 40 39 36 32 32 33 34 34 34 35 36 35 34 35 35 33 33 34 34 34 33 32 31 30 29 31 31 31 31 31 30 30 30 30
41 41 41 40 40 40 41 41 41 39 37 34 33 35 37 36 33 31 34 35 36 37 37 34 34 35 35 34 34 33 32 30 30 30 30 30 30 31 31 31 32 32
42 43 44 43 42 42 41 41 40 38 38 38 36 36 39 39 36 33 35 37 37 39 40 38 37 38 37 35 34 34 33 33 32 31 31 31 31 32 34 34 35 35
31 33 38 41 42 43 41 40 40 39 39 39 38 37 38 39 38 37 37 38 39 41 42 41 40 39 38 36 35 36 36 36 35 34 34 35 35 35 36 37 37 37
19 21 24 27 31 36 39 40 41 41 39 38 37 37 39 40 40 39 37 37 41 44 44 43 42 41 40 38 37 38 39 39 39 38 39 39 38 37 37 38 38 38

ECMWFNIL_500_spd_138.txt.gz
Wind_Speed
14 14 13 13 13 12 12 11 10 10 10 10 10 10 10 10 9 8 7 7 6 6 5 5 5 4 3 3 3 2 2 2 2 2 2 2 3 3 3 3 3 3
15 15 14 14 14 13 12 12 12 11 11 11 11 11 10 10 9 9 8 8 8 8 7 7 6 5 5 4 4 4 3 3 3 3 3 3 3 3 2 2 3 3
16 16 15 15 15 14 14 14 13 13 12 12 11 11 11 10 10 10 10 10 10 10 9 9 8 7 6 6 5 5 4 4 3 3 3 3 3 3 3 3 3 4
18 17 17 16 16 16 16 15 14 13 13 13 12 12 12 11 11 11 11 11 11 11 11 11 11 10 9 8 7 6 6 5 4 3 3 3 3 3 3 3 4 4
19 19 18 18 17 17 16 16 15 14 14 13 12 13 12 12 12 12 12 12 12 12 12 12 12 12 11 10 9 9 8 7 6 6 5 5 4 4 4 4 4 4
22 21 20 19 19 18 17 17 16 15 14 14 13 13 13 13 13 13 13 13 13 13 13 14 14 13 13 12 12 11 10 9 9 8 7 7 7 6 6 5 5 5
23 23 22 21 20 19 19 18 17 17 16 16 15 15 15 14 14 14 14 14 14 14 14 14 15 14 14 14 13 13 12 11 10 10 9 9 9 8 7 7 6 6
24 24 23 22 21 21 21 20 20 19 18 17 17 16 16 16 16 16 15 15 16 16 16 16 16 16 15 15 15 14 13 13 12 12 11 11 11 10 10 9 8 8
23 23 23 23 23 22 23 22 22 21 20 19 18 18 18 18 18 17 17 17 17 17 17 17 17 17 17 17 16 15 15 14 14 14 13 13 12 12 12 11 11 10
24 24 23 23 23 23 24 24 24 23 22 21 20 20 19 19 19 18 18 19 19 19 18 18 18 18 18 18 17 17 17 16 16 16 15 14 14 13 13 13 13 13
26 26 25 24 24 24 24 25 25 24 23 22 22 22 21 21 20 20 20 20 20 20 19 19 19 20 20 20 19 18 18 18 18 18 17 16 15 15 15 15 15 15
27 27 27 26 26 26 25 26 26 26 25 24 24 23 23 23 23 22 22 22 22 22 21 21 21 21 21 21 21 21 21 20 20 19 18 18 17 17 17 17 17 16
28 28 29 29 28 27 27 27 27 27 27 27 26 25 25 25 25 25 24 24 23 23 23 22 22 23 23 23 22 22 22 22 21 21 21 20 20 19 19 19 19 18
28 29 30 30 30 29 29 28 29 29 28 29 28 28 28 28 27 27 26 25 25 25 24 24 24 25 25 24 24 24 23 23 23 23 22 22 22 21 20 20 20 20
28 29 30 31 31 31 30 30 30 30 30 30 30 29 30 29 29 28 27 27 26 26 26 26 26 26 27 26 26 25 25 24 24 24 23 23 24 23 23 23 23 23
29 29 30 30 30 30 29 30 31 31 31 31 31 31 31 30 30 29 28 28 28 28 28 27 27 27 27 28 27 27 27 26 26 25 24 24 25 25 26 26 25 25
35 33 31 30 30 29 29 30 32 32 32 32 32 32 31 31 31 31 30 30 30 29 28 28 26 26 27 29 29 28 28 28 28 27 26 26 25 26 28 28 27 27
40 37 35 33 32 30 30 31 32 32 32 32 32 32 31 31 32 32 32 31 31 30 29 28 26 27 30 31 29 28 29 29 30 29 28 27 26 27 30 30 29 29
43 40 37 36 36 34 32 33 34 34 33 32 32 31 31 31 32 33 32 32 32 32 31 31 29 30 32 32 30 29 29 30 30 30 29 28 29 31 33 32 31 30
42 41 39 38 39 38 36 35 36 36 35 34 32 31 31 31 33 34 32 32 33 34 34 32 32 33 34 33 32 31 31 31 32 31 31 31 33 34 34 33 33 32
32 35 38 40 43 42 40 40 40 39 38 38 35 33 32 31 32 34 34 33 33 35 35 35 34 35 36 36 35 34 34 34 34 34 34 34 35 36 36 35 34 34
25 27 31 38 44 46 44 43 43 42 40 40 38 36 36 35 34 33 34 34 34 34 36 37 37 37 37 38 38 37 37 37 37 36 36 36 35 36 36 36 36 35
25 25 27 31 38 45 47 47 46 44 42 42 42 39 39 40 39 36 34 35 37 36 36 37 38 38 37 38 39 39 39 38 38 38 37 36 35 35 35 36 37 36
24 22 22 24 28 38 47 49 47 45 43 43 42 41 40 42 43 40 36 38 40 39 36 37 39 40 39 38 39 40 40 39 38 38 37 36 35 34 34 35 36 36
24 22 20 19 18 24 33 40 43 44 46 47 45 42 41 42 44 43 40 39 41 40 39 37 38 41 42 41 40 41 41 41 40 39 38 37 36 36 35 35 37 37
27 27 25 21 17 16 19 22 26 29 35 42 47 48 46 43 43 44 43 40 40 41 40 38 38 41 42 42 43 43 42 42 42 41 39 38 38 38 38 38 39 39

ECMWFNIL_500_spd_141.txt.gz
Wind_Speed
11 10 10 10 9 9 8 8 8 7 7 7 8 8 7 7 7 7 6 6 6 6 5 5 5 4 4 3 3 3 2 1 1 0 0 0 1 1 2 1 1 2
12 12 12 11 11 10 9 9 9 8 8 8 9 9 9 8 8 8 8 8 7 7 7 6 6 6 5 4 4 3 2 2 1 1 1 1 1 2 2 1 2 2
14 13 14 13 12 12 11 11 10 10 9 9 10 10 10 9 9 9 8 8 8 8 8 7 7 6 6 6 5 5 4 3 3 3 3 3 2 2 2 3 3 3
15 15 15 15 14 14 13 13 12 11 10 10 10 10 10 10 10 10 9 9 9 9 8 8 8 7 7 7 7 6 6 5 4 4 4 4 3 3 4 4 5 5
17 16 16 16 15 15 15 14 13 12 11 11 12 12 11 11 11 10 10 10 10 10 10 9 9 9 9 8 8 7 7 7 6 5 5 5 5 5 5 5 6 6
19 18 17 17 16 16 16 15 14 13 13 13 13 13 13 12 11 11 11 11 11 11 11 11 11 11 10 10 10 9 9 8 7 7 7 7 7 7 7 7 7 7
21 20 19 18 18 17 17 17 16 16 15 15 15 15 15 14 13 12 12 12 12 12 12 12 12 12 12 12 11 11 11 10 9 9 9 9 9 9 8 8 8 8
22 22 21 21 20 20 19 19 19 18 18 17 17 17 16 16 15 14 14 13 13 13 13 13 14 14 14 14 13 13 13 12 12 12 12 11 11 11 11 10 10 10
22 22 22 22 21 21 21 21 21 20 20 19 19 19 18 18 17 16 16 16 15 15 15 15 15 15 16 16 16 15 15 14 14 14 14 13 13 13 13 13 12 12
23 22 22 22 22 23 23 23 23 22 22 21 21 21 21 20 19 19 18 18 18 17 17 17 16 17 17 17 17 17 17 16 15 16 16 14 14 15 15 15 15 15
23 23 23 22 22 23 23 24 24 23 23 23 22 22 23 22 21 21 20 20 20 19 19 18 18 18 18 18 18 18 18 18 17 17 17 16 16 17 17 17 17 17
24 23 23 22 22 23 23 24 24 25 24 24 23 23 23 23 23 23 22 22 22 21 20 19 19 18 19 19 19 20 20 19 19 19 18 18 18 19 19 19 19 20
24 23 23 23 22 22 23 24 24 25 25 25 25 24 23 24 24 24 24 24 23 23 22 20 19 19 20 20 20 21 21 21 21 21 20 19 19 20 21 20 20 20
24 23 23 23 22 22 23 25 26 26 26 26 26 26 25 25 25 26 26 25 24 24 23 22 21 21 21 22 22 21 21 22 22 22 22 22 22 23 22 21 21 21
23 23 23 23 23 23 23 25 26 26 26 27 27 27 27 26 26 27 27 26 26 25 24 25 24 23 23 24 23 22 22 23 24 24 24 24 25 24 23 23 23 22
24 25 25 25 25 26 25 26 27 26 27 30 30 28 27 27 26 27 27 28 27 26 25 26 26 26 26 26 26 25 25 25 25 25 25 26 27 26 24 24 24 25
26 28 30 29 28 28 29 30 30 28 28 30 31 31 30 29 27 27 28 29 29 29 28 26 26 27 29 30 29 28 27 27 26 27 26 26 27 27 27 27 27 28
28 30 32 32 31 31 31 32 32 32 30 29 30 32 33 30 28 28 29 29 29 30 29 28 29 30 30 31 31 31 30 29 28 28 27 27 28 28 29 30 30 31
29 30 32 33 34 34 35 35 35 35 33 31 31 32 32 31 30 30 31 30 31 31 30 30 31 32 32 32 33 33 32 31 30 30 30 29 29 30 31 32 32 32
31 32 33 33 34 34 34 36 38 38 36 35 34 34 33 33 32 32 33 32 33 34 32 32 33 34 34 34 34 35 34 33 33 32 32 32 30 30 32 32 32 32
31 32 32 32 31 31 30 31 34 37 38 38 37 36 35 35 34 35 35 35 35 35 34 34 35 36 37 36 36 37 36 36 35 34 34 34 32 31 31 31 31 32
24 25 27 28 29 28 28 27 28 32 36 38 39 39 38 37 37 37 38 37 37 36 34 35 37 39 39 39 39 39 38 38 38 36 36 36 36 34 33 32 32 31
18 19 21 23 24 24 25 26 26 26 30 34 37 39 40 40 39 40 41 40 39 37 36 36 39 40 40 41 41 41 41 41 40 37 36 38 39 38 36 35 35 34
19 19 19 20 21 22 23 23 23 23 24 27 31 35 38 40 41 41 42 41 40 40 40 40 42 43 42 42 43 43 43 43 41 38 36 38 41 41 38 37 38 38
20 21 21 21 21 21 23 22 22 22 19 17 19 25 30 35 40 43 43 43 42 41 40 40 42 44 43 43 44 43 44 43 40 39 41 42 43 42 40 39 41 42
21 21 21 22 21 22 24 24 23 23 21 17 18 21 21 23 28 32 36 40 43 45 44 42 41 41 41 43 44 43 44 45 41 39 41 44 44 43 41 40 42 44

ECMWFNIL_500_spd_144.txt.gz
Wind_Speed
5 5 5 5 5 5 5 5 5 4 4 4 3 3 3 2 2 3 3 3 2 2 2 1 1 1 1 1 1 1 1 1 1 1 1 1 1 1 1 2 2 2
8 7 7 7 7 7 7 7 7 6 6 6 5 4 4 4 4 5 5 5 4 3 3 3 3 2 3 3 2 1 1 2 2 1 1 1 0 1 1 1 2 2
10 9 9 9 9 9 8 8 8 7 7 7 6 5 5 4 5 5 6 6 5 5 4 4 4 4 3 4 4 3 3 3 3 3 3 2 2 2 2 2 2 2
11 11 11 11 11 11 10 10 9 9 8 8 7 7 6 6 6 6 6 6 6 6 5 5 5 5 4 5 5 5 4 4 4 4 4 4 4 3 3 3 3 4
12 12 12 13 13 12 12 11 11 11 10 9 8 8 8 7 7 8 8 7 7 7 7 7 6 6 6 6 6 6 6 5 5 5 5 5 5 4 4 4 5 5
14 14 13 13 14 14 14 13 12 12 12 11 10 9 9 9 8 9 9 8 8 8 8 8 7 7 8 8 8 8 7 7 6 6 6 6 6 6 5 6 6 6
15 15 15 15 15 15 15 15 14 14 13 13 12 12 11 11 10 10 10 10 10 10 10 9 9 9 9 9 9 9 9 8 8 8 8 8 8 8 7 8 8 8
17 17 17 16 17 17 17 17 16 15 15 14 14 14 14 14 13 12 12 12 12 12 12 11 11 11 11 11 11 11 11 10 10 10 10 10 10 10 10 10 10 10
16 17 18 17 17 18 18 19 19 18 17 16 15 16 16 16 15 14 14 13 13 14 14 13 13 13 13 13 13 13 13 12 12 12 12 12 12 12 11 11 11 11
14 15 16 16 16 16 17 19 19 19 18 18 17 17 18 18 17 16 16 16 15 15 15 15 15 15 15 15 14 15 15 15 14 14 14 14 14 14 14 13 13 13
16 16 15 15 16 16 17 18 18 17 17 18 17 18 18 19 19 18 18 17 17 17 16 16 16 16 16 16 17 17 17 17 16 15 15 16 16 16 17 16 15 15
17 18 17 17 18 18 19 19 18 17 17 17 18 18 17 17 18 19 19 19 19 19 18 18 17 16 17 17 18 18 19 18 17 17 17 17 17 18 18 18 19 18
20 20 19 19 19 20 21 21 20 20 20 21 21 20 19 17 17 18 19 20 21 21 21 20 17 17 18 19 19 20 20 19 18 18 19 19 19 20 19 19 20 20
22 21 20 19 20 21 22 22 22 23 23 24 24 23 22 21 19 19 20 21 22 22 21 19 18 18 19 20 21 22 22 21 20 20 20 21 21 21 20 21 21 21
22 21 21 20 20 21 22 23 24 24 25 26 26 25 24 24 24 23 22 22 23 23 20 17 17 20 21 22 22 22 22 23 23 22 22 22 22 22 23 23 22 22
22 22 23 21 21 23 23 24 24 25 26 27 27 26 25 26 28 28 26 25 24 23 22 20 19 21 23 25 25 24 23 24 25 25 25 25 25 25 24 24 24 24
23 23 24 23 23 24 24 25 25 25 27 28 29 28 27 27 30 31 31 29 27 25 25 24 23 23 25 26 27 26 25 25 26 27 27 27 27 26 26 26 26 26
25 25 25 25 25 25 25 26 27 27 29 30 30 30 30 30 31 32 32 31 29 29 29 28 28 27 26 27 27 27 27 27 28 29 29 30 29 28 29 30 29 28
27 27 27 27 27 28 28 27 29 30 32 34 33 31 31 33 34 35 35 32 31 31 32 31 31 30 30 29 28 28 29 29 29 30 31 31 30 30 32 32 31 30
28 28 28 29 29 30 30 29 30 31 32 33 33 31 31 34 37 38 37 35 33 33 33 33 33 33 32 31 30 29 29 30 31 31 32 32 32 32 33 33 33 33
31 31 29 28 29 29 28 28 29 29 30 30 29 28 30 32 35 38 39 38 36 34 33 34 35 34 33 32 32 32 31 31 32 32 31 32 32 33 33 34 35 35
33 34 29 23 23 24 24 25 25 25 27 27 25 24 27 28 30 33 37 39 38 36 36 37 37 36 34 33 34 33 33 33 33 33 32 32 33 34 35 36 36 37
31 33 30 24 21 20 19 20 21 21 23 24 22 20 21 24 27 31 36 40 39 37 37 38 39 38 37 36 35 34 34 34 34 33 32 33 34 36 38 38 38 38
23 25 26 24 22 20 18 19 20 20 21 22 21 20 19 19 20 23 29 35 38 40 40 41 40 38 36 37 37 37 37 37 36 35 36 37 38 38 40 41 40 41
15 16 18 20 19 18 17 18 18 19 20 20 19 18 17 15 14 16 19 21 24 30 35 37 36 35 36 38 38 38 39 38 37 37 37 39 40 40 41 42 43 45
14 15 16 17 16 16 16 15 15 18 21 22 19 19 20 20 19 21 23 21 18 18 19 20 22 25 29 34 37 39 40 40 39 38 37 37 38 39 40 42 44 45